Zurück zum Katalog

STARLINK-32854

AktivKommunikationVLEO
NORAD 62816·PAYLOAD·🇺🇸 United States

Gestartet Jan 24, 2025 von Vandenberg Space Force Base

Loading…

Nächste Überflüge (nächste 24 Stunden)

TLE

AktuellSource: CelesTrak SupGP

Epoche: Sep 15, 2026, 02:59 UTC

1 62816C 25018L   26258.12479167  .00031826  00000+0  94041-3 0  2587
2 62816  53.1572 147.1553 0001330  83.5992  57.9752 15.34370746    13

Verfolge STARLINK-32854 in Echtzeit mit AllMySat

Download on the App Store